[[{"header":{"parameterUnit":"m.s-1","parameterCategory":1,"la1":30.2991,"la2":30.254,"lo1":-89.0895,"lo2":-89.0444,"dy":0.0017,"dx":0.0017,"nx":28,"ny":28,"refTime":"2023-04-30T15:00:00:Z","depth":0,"parameterNumber":2,"parameterNumberName":"U-component_of_WINDS"},"data":[0,0,0,0,0,0,0,0,0,0,0,0,0,0,0,0,0,0,0,0,0,0,0,0,0,0,0,0,0,0,0,0,0,0,0,0,0,0,0,0,0,0,0,0,0,0,0,0,0,0,0,0,0,0,0,0,0,0,7.6135,7.6137,0,7.6331,7.6333,7.6335,7.6279,7.6275,7.6271,7.6267,7.6467,7.6476,7.6485,0,0,0,0,0,0,0,0,0,0,0,0,0,7.5714,7.5722,7.6135,7.6137,7.614,7.633,7.6333,7.6336,7.628,7.6275,7.627,7.6265,7.6464,7.6474,7.6485,0,0,0,0,0,0,0,0,0,0,0,0,0,7.5902,7.5725,7.6134,7.6135,7.6137,7.633,7.6333,7.6336,7.6281,7.6275,7.6269,7.6263,7.646,7.6473,7.6487,7.6691,0,0,7.6528,7.6534,0,0,0,0,0,0,0,0,7.5892,7.5918,7.6132,7.6135,7.6138,7.6274,7.6258,7.6455,7.6282,7.6226,7.6267,7.626,7.6408,7.6425,7.6475,7.67,7.6709,7.6529,7.6538,7.6544,7.6547,0,0,0,0,0,0,0,7.5879,7.5909,7.6212,7.6136,7.6139,7.6126,7.6146,7.6295,7.6348,7.6231,7.6227,7.6251,7.6408,7.6462,7.6479,7.6712,7.6529,7.6541,7.655,7.6555,7.7117,7.7123,0,0,0,0,0,0,7.5864,7.5898,7.6206,7.6218,7.5997,7.6138,7.6161,7.6236,7.6346,7.6357,7.6256,7.6248,7.6442,7.6463,7.6486,7.6733,7.6543,7.6556,7.6564,7.711,7.7118,7.7126,0,0,0,0,0,0,7.5855,7.5892,7.6198,7.6058,7.6095,7.6152,7.6238,7.6244,7.6297,7.6365,7.6375,7.6301,7.6438,7.6467,7.6641,7.674,7.6562,7.6575,7.7102,7.7113,7.7122,7.7229,0,0,0,0,0,0,7.5843,7.5889,7.5966,7.606,7.6103,7.635,7.6244,7.6252,7.6321,7.6312,7.6411,7.6421,7.6435,7.6621,7.6654,7.6755,7.6585,7.7093,7.7107,7.7119,7.7217,7.7242,7.7263,0,0,0,0,0,7.5828,7.5988,7.5971,7.6008,7.6201,7.6355,7.638,7.6394,7.6329,7.6408,7.6452,7.6418,7.6724,7.6639,7.6676,7.6783,7.7087,7.7103,7.7118,7.7207,7.7237,7.7262,0,0,0,0,0,0,7.5904,7.6,7.5982,7.6177,7.6259,7.6346,7.6445,7.6425,7.6526,7.6514,7.6526,7.6549,7.6727,7.6772,7.6677,7.6987,7.6896,7.6919,7.6951,7.698,7.7003,7.6988,7.6596,0,0,0,0,0,7.5943,7.6061,7.6138,7.6303,7.6345,7.6389,7.6456,7.646,7.6545,7.6579,7.6635,7.6719,7.6834,7.691,7.7019,7.7224,7.7245,7.7315,7.7338,7.7357,7.7377,7.749,7.7523,7.7176,7.7176,7.7175,0,0,7.6026,7.6093,7.6166,7.632,7.6383,7.6505,7.6418,7.6549,7.664,7.6599,7.6767,7.6812,7.6906,7.7097,7.7184,7.714,7.7478,7.7376,7.739,7.7401,7.7509,7.7542,7.7571,7.7186,7.7184,7.7183,0,0,7.6238,7.6301,7.6446,7.6512,7.661,7.6638,7.6673,7.6765,7.6793,7.6963,7.6935,7.7043,7.724,7.731,7.7371,7.7613,7.7586,7.7648,7.7768,7.7878,7.7906,7.793,7.8018,7.8049,7.7668,7.7669,7.7669,0,7.6328,7.651,7.6522,7.6658,7.6727,7.6696,7.6844,7.6907,7.7036,7.7085,7.7034,7.7283,7.7345,7.7552,7.7612,7.7662,7.7703,7.7637,7.7901,7.7925,7.7948,7.8032,7.8065,7.7676,7.7675,7.7674,7.7673,0,7.6617,7.6744,7.6849,7.6976,7.7057,7.7197,7.7231,7.7312,7.7309,7.7343,7.7517,7.759,7.7715,7.7765,7.7763,7.7973,7.7943,7.7897,7.7805,7.7988,7.8067,7.8099,7.7686,7.7683,7.7681,7.7679,0,0,7.6881,7.7014,7.7053,7.7111,7.7218,7.7317,7.7457,7.7579,7.7649,7.774,7.7858,7.8027,7.7986,7.8056,7.8062,7.8159,7.8348,7.8101,7.8103,7.8145,7.8586,7.862,7.8657,7.8331,7.8337,7.8342,7.8578,0,7.7103,7.735,7.7366,7.7589,7.7707,7.7682,7.7804,7.7883,7.792,7.8026,7.8065,7.8186,7.8122,7.8164,7.8259,7.8305,7.8436,7.8288,7.8441,7.8447,7.8419,7.8698,7.8734,7.8953,7.8609,7.8614,7.8618,0,7.7395,7.7496,7.7731,7.7824,7.7874,7.7984,7.8099,7.82,7.8291,7.8311,7.839,7.8383,7.8528,7.8432,7.8633,7.8531,7.8595,7.8628,7.8637,7.8651,7.8543,7.872,7.9023,7.9056,7.8666,7.8662,7.8659,0,7.7565,7.776,7.7926,7.7977,7.8089,7.8167,7.8217,7.8302,7.8376,7.8476,7.8525,7.8641,7.8705,7.8795,7.882,7.8748,7.9021,7.8927,7.9042,7.9042,7.91,7.9096,7.9418,7.9142,7.9141,7.914,7.914,0,7.7812,7.7957,7.8005,7.8107,7.827,7.8288,7.8448,7.8494,7.857,7.8681,7.8666,7.8771,7.8798,7.8908,7.8929,7.9093,7.9122,7.9142,7.9146,7.9144,7.9141,7.9186,7.9171,7.9149,7.9147,7.9146,7.9144,0,7.8029,7.8067,7.8247,7.8339,7.8366,7.8482,7.8561,7.866,7.8695,7.8836,7.8871,7.8926,7.9055,7.909,7.9244,7.9258,7.9452,7.9441,7.9421,7.9421,7.9535,7.9524,7.9896,7.9947,7.9637,7.964,7.9642,0,7.8184,7.8296,7.8401,7.8474,7.8529,7.8648,7.8723,7.8746,7.8825,7.8938,7.9024,7.9152,7.9255,7.9464,7.9518,7.9636,7.9629,7.9751,7.9646,7.9641,7.9632,7.9625,7.9637,7.9771,7.9774,7.9777,7.9779,0,7.8456,7.847,7.8579,7.8696,7.8787,7.888,7.897,7.9031,7.9067,7.9157,7.9289,7.937,7.9529,7.9656,7.9777,7.9829,7.9811,7.9812,7.9845,7.9844,7.9828,7.9839,7.9476,7.9803,7.9801,7.9799,7.9798,7.9797,7.8647,7.8746,7.8836,7.8959,7.9029,7.9113,7.9211,7.926,7.9371,7.9502,7.9509,7.9653,7.9743,7.9903,7.9963,8.0077,8.004,8.0087,8.01,8.0111,8.0121,7.981,8.0098,8.0098,8.0097,8.0097,8.0096,0,7.8919,7.8976,7.9089,7.9215,7.9313,7.9288,7.9386,7.9469,7.9597,7.9682,7.9785,7.9938,8.0062,8.0127,8.0251,8.033,8.0325,8.0362,8.0356,8.0369,8.0147,8.0106,8.0364,8.0364,8.0364,8.0364,8.0364,8.0364,7.9071,7.9237,7.9262,7.9463,7.9519,7.9661,7.9719,7.9798,7.9866,8.0039,8.0142,8.0184,8.0262,8.0391,8.0505,8.0521,8.0567,8.0609,8.062,8.0411,8.0384,8.0358,8.032,8.0619,8.0619,8.0833,8.0835,8.0837]},{"header":{"parameterUnit":"m.s-1","parameterCategory":1,"la1":30.2991,"la2":30.254,"lo1":-89.0895,"lo2":-89.0444,"dy":0.0017,"dx":0.0017,"nx":28,"ny":28,"refTime":"2023-04-30T15:00:00:Z","depth":0,"parameterNumber":3,"parameterNumberName":"V-component_of_WINDS"},"data":[0,0,0,0,0,0,0,0,0,0,0,0,0,0,0,0,0,0,0,0,0,0,0,0,0,0,0,0,0,0,0,0,0,0,0,0,0,0,0,0,0,0,0,0,0,0,0,0,0,0,0,0,0,0,0,0,0,0,-4.9496,-4.9498,0,-4.9641,-4.9643,-4.9645,-4.9623,-4.962,-4.9618,-4.9616,-4.9763,-4.977,-4.9776,0,0,0,0,0,0,0,0,0,0,0,0,0,-4.9201,-4.9206,-4.9496,-4.9498,-4.95,-4.9641,-4.9643,-4.9645,-4.9623,-4.962,-4.9617,-4.9614,-4.9761,-4.9769,-4.9776,0,0,0,0,0,0,0,0,0,0,0,0,0,-4.9336,-4.9208,-4.9496,-4.9506,-4.9508,-4.9641,-4.9643,-4.9645,-4.9624,-4.962,-4.9616,-4.9613,-4.9759,-4.9768,-4.9777,-4.9908,0,0,-4.9806,-4.981,0,0,0,0,0,0,0,0,-4.9328,-4.9347,-4.9503,-4.9505,-4.9508,-4.961,-4.9593,-4.9734,-4.9625,-4.958,-4.9616,-4.9611,-4.9715,-4.9728,-4.9763,-4.9915,-4.9922,-4.9807,-4.9812,-4.9816,-4.9819,0,0,0,0,0,0,0,-4.9319,-4.934,-4.9553,-4.9505,-4.9508,-4.9503,-4.9518,-4.962,-4.9666,-4.9584,-4.9582,-4.96,-4.9716,-4.9754,-4.9767,-4.9924,-4.9806,-4.9815,-4.982,-4.9824,-5.0192,-5.0196,0,0,0,0,0,0,-4.9307,-4.9333,-4.9549,-4.9558,-4.9407,-4.9512,-4.9529,-4.9581,-4.9665,-4.9675,-4.9603,-4.9598,-4.974,-4.9756,-4.9772,-4.9932,-4.9816,-4.9825,-4.983,-5.0188,-5.0193,-5.0198,0,0,0,0,0,0,-4.93,-4.9326,-4.9543,-4.9445,-4.9472,-4.9521,-4.958,-4.9586,-4.9624,-4.968,-4.9688,-4.9633,-4.9738,-4.9759,-4.9875,-4.9937,-4.9829,-4.9838,-5.0183,-5.019,-5.0195,-5.0253,0,0,0,0,0,0,-4.9292,-4.9324,-4.9374,-4.9446,-4.9478,-4.9644,-4.9584,-4.9591,-4.964,-4.9636,-4.9711,-4.9719,-4.9737,-4.9861,-4.9884,-4.9948,-4.9845,-5.0178,-5.0186,-5.0193,-5.0245,-5.026,-5.0272,0,0,0,0,0,-4.9281,-4.9384,-4.9377,-4.9403,-4.9541,-4.9647,-4.9665,-4.9683,-4.9645,-4.9696,-4.9733,-4.9717,-4.9926,-4.9873,-4.9899,-4.9966,-5.0174,-5.0184,-5.0193,-5.0239,-5.0257,-5.0272,0,0,0,0,0,0,-4.9317,-4.9394,-4.9386,-4.9515,-4.9575,-4.9644,-4.9708,-4.9701,-4.9773,-4.9766,-4.9785,-4.9802,-4.992,-4.9955,-4.9894,-5.0098,-5.0045,-5.006,-5.0071,-5.0089,-5.0102,-5.0091,-4.9853,0,0,0,0,0,-4.934,-4.942,-4.9482,-4.959,-4.9621,-4.966,-4.9706,-4.9715,-4.9778,-4.9803,-4.9847,-4.9909,-4.9988,-5.004,-5.0117,-5.025,-5.0267,-5.0309,-5.0323,-5.0334,-5.0346,-5.0421,-5.0441,-5.0229,-5.0229,-5.0228,0,0,-4.9388,-4.944,-4.9489,-4.9599,-4.9646,-4.9729,-4.9681,-4.977,-4.9832,-4.9816,-4.9929,-4.9964,-5.0034,-5.016,-5.0218,-5.0192,-5.0409,-5.0346,-5.0354,-5.0361,-5.0433,-5.0453,-5.047,-5.0235,-5.0234,-5.0233,0,0,-4.9519,-4.9565,-4.9661,-4.971,-4.9782,-4.9808,-4.9831,-4.9901,-4.9924,-5.0037,-5.0028,-5.0101,-5.0238,-5.0288,-5.0332,-5.0483,-5.0472,-5.0507,-5.0578,-5.065,-5.0667,-5.0682,-5.0737,-5.0756,-5.052,-5.052,-5.052,0,-4.9569,-4.9693,-4.9711,-4.9802,-4.985,-4.9841,-4.9938,-4.9985,-5.0078,-5.0113,-5.0083,-5.0255,-5.0301,-5.0439,-5.0476,-5.0512,-5.0539,-5.0499,-5.0663,-5.0678,-5.0693,-5.0745,-5.0765,-5.0524,-5.0523,-5.0523,-5.0522,0,-4.9753,-4.9839,-4.9907,-4.9999,-5.0055,-5.0149,-5.0181,-5.0236,-5.024,-5.0269,-5.0385,-5.0441,-5.0529,-5.0562,-5.0566,-5.0702,-5.0684,-5.0659,-5.0606,-5.0716,-5.0766,-5.0786,-5.0529,-5.0528,-5.0527,-5.0526,0,0,-4.9909,-5.001,-5.0035,-5.0077,-5.0157,-5.0224,-5.0317,-5.0404,-5.0451,-5.0516,-5.0595,-5.0712,-5.069,-5.0739,-5.0749,-5.0813,-5.093,-5.078,-5.0782,-5.0807,-5.1084,-5.1102,-5.1125,-5.0923,-5.0927,-5.093,-5.1078,0,-5.0047,-5.0213,-5.0232,-5.0379,-5.046,-5.0452,-5.0534,-5.0592,-5.0622,-5.0694,-5.0727,-5.0809,-5.0773,-5.0803,-5.0866,-5.0903,-5.0986,-5.0892,-5.0998,-5.1001,-5.0981,-5.1151,-5.1171,-5.1308,-5.1097,-5.1101,-5.1103,0,-5.0231,-5.0302,-5.0458,-5.0528,-5.0562,-5.0635,-5.0717,-5.0786,-5.0852,-5.0869,-5.0925,-5.0928,-5.1025,-5.0968,-5.1102,-5.1038,-5.1082,-5.1107,-5.1113,-5.1124,-5.1059,-5.1167,-5.1351,-5.1372,-5.1133,-5.1131,-5.1129,0,-5.0331,-5.0465,-5.0576,-5.0612,-5.0696,-5.0748,-5.0785,-5.0848,-5.0899,-5.097,-5.1004,-5.1085,-5.113,-5.1193,-5.1217,-5.1173,-5.1351,-5.1296,-5.1369,-5.1368,-5.1406,-5.1404,-5.1601,-5.1434,-5.1434,-5.1433,-5.1433,0,-5.0484,-5.0579,-5.0622,-5.069,-5.0798,-5.0819,-5.0924,-5.096,-5.1016,-5.1091,-5.1089,-5.116,-5.1188,-5.1263,-5.1283,-5.1392,-5.1412,-5.1429,-5.1433,-5.143,-5.1428,-5.1459,-5.1451,-5.1439,-5.1438,-5.1436,-5.1436,0,-5.0613,-5.0646,-5.0766,-5.0836,-5.0856,-5.0932,-5.0992,-5.1059,-5.1087,-5.1183,-5.1207,-5.1252,-5.1341,-5.1372,-5.1479,-5.1493,-5.162,-5.1615,-5.1597,-5.1598,-5.167,-5.1663,-5.1895,-5.1927,-5.1738,-5.174,-5.1741,0,-5.0709,-5.0782,-5.0861,-5.0911,-5.0951,-5.1032,-5.1084,-5.1108,-5.1163,-5.1244,-5.1301,-5.1389,-5.1461,-5.1604,-5.1647,-5.1729,-5.1727,-5.1803,-5.174,-5.1734,-5.173,-5.1725,-5.1733,-5.1815,-5.1817,-5.1818,-5.182,0,-5.0876,-5.0889,-5.0964,-5.1046,-5.1109,-5.1175,-5.1238,-5.128,-5.1313,-5.1374,-5.1466,-5.1521,-5.1632,-5.172,-5.1805,-5.1843,-5.1838,-5.1839,-5.1861,-5.1858,-5.1845,-5.1854,-5.163,-5.1834,-5.1833,-5.1832,-5.1831,-5.183,-5.0992,-5.1058,-5.1123,-5.1208,-5.1258,-5.1318,-5.1384,-5.1422,-5.1498,-5.159,-5.1599,-5.1698,-5.1763,-5.1876,-5.1919,-5.1997,-5.1976,-5.2007,-5.2015,-5.2022,-5.2028,-5.1832,-5.2012,-5.2012,-5.2012,-5.2011,-5.2011,0,-5.116,-5.1202,-5.128,-5.1369,-5.1436,-5.1425,-5.1495,-5.1552,-5.1638,-5.17,-5.1771,-5.1876,-5.1962,-5.2012,-5.2098,-5.215,-5.215,-5.2172,-5.2169,-5.2178,-5.2041,-5.2015,-5.2171,-5.2171,-5.2171,-5.2171,-5.2171,-5.2171,-5.1255,-5.1366,-5.1386,-5.1522,-5.1564,-5.166,-5.1702,-5.1757,-5.1806,-5.1924,-5.1995,-5.2027,-5.2085,-5.2175,-5.2253,-5.2266,-5.2298,-5.2322,-5.2333,-5.2204,-5.2188,-5.2172,-5.2147,-5.2329,-5.2329,-5.2464,-5.2465,-5.2466]}]]